TIANMU-1 15

Last updated on Tue Jul 01 2025 00:02:22 GMT+0000 (Coordinated Universal Time)

1 58700U 24004A 25181.56840050 .00003719 00000+0 16541-3 0 9994 2 58700 97.4660 3.9479 0007776 140.8965 219.2834 15.22099875 82205
UTC large
Height (km)
Speed (km/s)
/
Latitude / Longitude
Inclination (degrees)
Orbital Period (minutes)
Azimuth
Elevation
Range (km)
Doppler Factor

Next 0 passes for location: London (51.5072 / 0.1276)

Sorry there are no passes over London.